Regional Weather Roundup
Issued by NWS Midland/Odessa, TX

Home | Current Version | Previous Version | Text Only | Print | Product List | Glossary On
Versions: 1 2 3 4 5 6 7 8 9 10 11 12 13 14 15 16 17 18 19 20 21 22 23 24 25 26 27 28 29 30 31 32 33 34 35 36 37 38 39 40 41 42 43 44 45 46 47 48 49 50
000
ASUS44 KMAF 170310
RWRMAF
MIDLAND AREA WEATHER ROUNDUP
NATIONAL WEATHER SERVICE MIDLAND TX
1000 PM CDT WED APR 16 2014

...IN SOUTHWEST TEXAS AND SOUTHEAST NEW MEXICO...

CITY           SKY/WX    TMP DP  RH WIND       PRES   REMARKS
ALPINE         PTCLDY    64  19  17 SW5       29.91R
ANDREWS        FAIR      65  32  29 S18       29.80R
ARTESIA        CLEAR     66   3   8 W10       29.73R
BIG SPRING     CLEAR     66  31  27 SE16G25   29.84R
CARLSBAD       CLEAR     63   0   8 SW12      29.72R
DRYDEN           N/A     66  38  35 E12G24    29.82R
FORT STOCKTON  CLEAR     64  33  31 SE22G32   29.78R
GUAD PASS      CLEAR     67   0   7 W15       29.88R
HOBBS          LGT RAIN  66  25  20 SE18G25   29.79R
MARFA          PTCLDY    63   9  12 S6        29.89R
MIDLAND AIRPK  CLEAR     66  33  29 S17G24    29.82R
MIDLAND INTL   CLEAR     65  34  31 SE18      29.81R
ODESSA         CLEAR     65  33  30 SE16      29.81R
PECOS          CLEAR     69  28  22 E12       29.71R
PRESIDIO       FAIR      74  18  11 E5        29.76R
SEMINOLE       CLEAR     65  28  24 S15       29.79R
SNYDER         CLEAR     65  27  24 SE12      29.84R
WINK           CLEAR     68  32  26 SE21G28   29.75R
$$
...OTHER STATIONS IN TEXAS...

CITY           SKY/WX    TMP DP  RH WIND       PRES   REMARKS
ABILENE        CLEAR     65  32  29 S18       29.87R
AMARILLO       CLOUDY    61  17  18 NE20      29.88R
AUSTIN         CLOUDY    61  48  62 SE15      29.98R
BROWNSVILLE    CLOUDY    65  58  78 SE5       29.97R
CORPUS CHRISTI CLOUDY    66  55  67 SE12      29.98R
DALLAS FTW     CLEAR     59  42  53 SE15      29.99R
DEL RIO        CLOUDY    69  40  34 SE12      29.87R
EL PASO        PTCLDY    77   1   5 NW13      29.77R
HOUSTON INT    PTCLDY    57  50  77 E8        30.04S
LUBBOCK        CLOUDY    68  25  19 S23G31    29.76R
SAN ANGELO     CLEAR     65  35  33 S12       29.87R
SAN ANTONIO    CLOUDY    64  48  56 SE20G29   29.96R
WACO           CLEAR     60  46  59 SE15      29.97R
WICHITA FALLS  NOT AVBL
$$
...OTHER LOCATIONS IN NEW MEXICO...

CITY           SKY/WX    TMP DP  RH WIND       PRES   REMARKS
ALAMAGORDO     PTCLDY    61   0   8 S8        29.78R
ALBUQUERQUE    CLOUDY    62  20  19 N18G29    29.91R
CANNON AFB     CLOUDY    62  17  17 N25G36    29.81R
CLOVIS         CLOUDY    61  16  17 N24       29.84R
HOLLOMAN AFB   PTCLDY    68  -3   6 SW9       29.76R
ROSWELL        PTCLDY    66  11  11 W8        29.71R
RUIDOSO        MOCLDY    61   0   8 CALM      29.94R
SANTA FE       CLOUDY    57  17  21 NW16G22   29.94R
TRUTH OR CONSE CLOUDY    71   2   6 NW15G22   29.81R
TUCUMCARI      CLOUDY    59  27  29 NE29G35   29.88R
$$



USA.gov is the U.S. government's official web portal to all federal, state and local government web resources and services.